Date,TemperatureHighF,TemperatureAvgF,TemperatureLowF,DewpointHighF,DewpointAvgF,DewpointLowF,HumidityHigh,HumidityAvg,HumidityLow,PressureMaxIn,PressureMinIn,WindSpeedMaxMPH,WindSpeedAvgMPH,GustSpeedMaxMPH,PrecipitationSumIn
2013-9-1,82,74,69,75,70,67,93,88,76,29.84,29.78,6,0,6,0.87
2013-9-2,82,72,65,74,68,62,93,89,70,29.80,29.69,11,0,11,1.04
2013-9-3,78,67,62,66,61,55,94,82,52,29.86,29.72,12,0,12,0.04
2013-9-4,80,68,57,60,56,54,92,67,43,29.97,29.86,13,1,13,0.00
2013-9-5,73,65,53,60,51,40,83,63,36,30.15,29.88,13,1,18,0.00
2013-9-6,69,57,45,47,42,35,86,61,30,30.26,30.10,8,0,9,0.00
2013-9-7,78,62,46,57,51,43,92,68,39,30.10,29.86,7,0,7,0.00
2013-9-8,77,67,55,63,52,41,79,61,33,30.09,29.79,11,1,20,0.00
2013-9-9,72,59,46,56,48,41,87,66,42,30.24,30.08,8,0,8,0.00
2013-9-10,82,72,64,73,66,56,89,82,72,30.16,30.02,9,0,9,0.00
2013-9-11,94,81,72,78,72,65,92,75,53,30.09,29.94,20,0,20,0.00
2013-9-12,84,73,67,74,68,64,93,84,71,29.96,29.67,17,0,17,0.18
2013-9-13,76,65,55,65,59,49,94,82,57,29.83,29.62,12,0,12,0.29
2013-9-14,66,56,48,51,47,43,88,71,54,30.10,29.83,8,0,8,0.00
2013-9-15,68,56,41,51,46,39,93,72,39,30.21,30.05,7,0,8,0.00
2013-9-16,69,59,49,56,51,39,88,76,56,30.27,30.01,18,1,18,0.00
2013-9-17,63,52,41,45,40,37,86,67,44,30.45,30.27,14,1,14,0.00
2013-9-18,71,57,42,49,45,40,92,68,37,30.34,30.15,6,0,7,0.00
2013-9-19,76,60,46,54,49,44,92,70,37,30.17,30.04,6,0,6,0.00
2013-9-20,79,63,48,60,53,46,93,73,40,30.08,29.96,7,0,7,0.00
2013-9-21,74,64,54,64,59,51,93,82,66,29.99,29.61,15,1,15,0.50
2013-9-22,66,60,51,62,51,41,93,73,52,29.90,29.62,12,1,13,0.29
2013-9-23,63,54,44,44,41,38,84,63,43,30.05,29.90,13,1,15,0.00
2013-9-24,71,55,40,48,43,37,92,67,40,30.05,29.85,7,0,7,0.00
2013-9-25,71,57,44,53,47,41,92,72,44,29.96,29.86,5,0,6,0.00
2013-9-26,68,58,52,53,49,47,91,74,55,30.11,29.94,12,1,12,0.00
2013-9-27,65,56,47,53,49,44,90,76,62,30.27,30.11,9,1,9,0.00
2013-9-28,73,58,48,55,50,46,93,76,47,30.35,30.23,6,0,7,0.00
2013-9-29,72,58,48,56,50,46,93,78,47,30.23,30.05,7,0,7,0.01
2013-9-30,74,59,46,56,49,43,93,74,41,30.08,29.95,6,0,6,0.00